Regional Weather Roundup
Issued by NWS Kansas City/Pleasant Hill, MO

Home | Current Version | Previous Version | Text Only | Print | Product List | Glossary On
Versions: 1 2 3 4 5 6 7 8 9 10 11 12 13 14 15 16 17 18 19 20 21 22 23 24 25 26 27 28 29 30 31 32 33 34 35 36 37 38 39 40 41 42 43 44 45 46 47 48 49 50
000
ASUS43 KEAX 221410
RWREAX

WEATHER ROUNDUP FOR EASTERN KANSAS AND NORTHWEST MISSOURI
NATIONAL WEATHER SERVICE KANSAS CITY/PLEASANT HILL MO
900 AM CDT FRI AUG 22 2014

KSZ040-057-103>105-MOZ028-029-037-043-221500-
...KANSAS CITY METROPOLITAN AREA...

CITY           SKY/WX    TMP DP  RH WIND       PRES   REMARKS
K.C. INTL      CLOUDY    81  72  74 S3        29.97R
K.C. DOWNTOWN  MOSUNNY   83  71  67 CALM      29.95R
LEES SUMMIT    PTSUNNY   79  70  74 SW8       29.97R
OLATHE - IXD   MOSUNNY   82  70  66 S10       29.96R
OLATHE - OJC   MOSUNNY   80  71  74 SW5       29.96R
LAWRENCE       MOSUNNY   86  71  60 VRB5      29.95R HX  91

$$

MOZ001>008-011>017-020>025-030>033-038>040-044>046-053-054-221500-
...NORTHERN AND CENTRAL MISSOURI...

CITY           SKY/WX    TMP DP  RH WIND       PRES   REMARKS
ST. JOSEPH     LGT RAIN  77  74  90 S6        29.96R
MOSBY          MOSUNNY   79  72  78 E3        29.97R
WHITEMAN AFB   MOSUNNY   80  50  34 SW13      29.96R
CLINTON        SUNNY     82  73  74 SW6       29.98R
SEDALIA        MOSUNNY   83  71  67 SW13G23   29.98R
WARSAW         NOT AVBL
MARSHALL       PTSUNNY   84  75  74 SE3       29.99S HX  92
CHILLICOTHE      N/A     79  73  82 S6        29.97R
MOBERLY        CLOUDY    79  72  78 S7        29.99F
KIRKSVILLE     CLOUDY    76  74  93 SW6       29.93F

$$

MOZ041-047>049-056>058-063>065-088>090-097-221500-
...EASTERN AND SOUTHERN MISSOURI...

CITY           SKY/WX    TMP DP  RH WIND       PRES   REMARKS
ST. LOUIS INTL PTSUNNY   85  72  65 W10       30.01R HX  91
SPIRIT OF STL  PTSUNNY   82  72  71 SW8       29.99R
COLUMBIA       PTSUNNY   78  73  84 N7        30.02R
JEFFERSON CITY PTSUNNY   79  72  79 VRB5      29.99R
MEXICO         CLOUDY    79  79 100 CALM      30.01F
HANNIBAL       CLOUDY    77  72  83 SE3       29.97F
ROLLA          MOSUNNY   80  71  74 SW13      30.02R
LEBANON        SUNNY     84  68  58 SW12      30.04S
OSAGE BEACH    MOSUNNY   81  70  69 SW8       30.00S
SPRINGFIELD    SUNNY     82  70  66 SW12      30.02R
BRANSON        SUNNY     84  70  61 SW7       30.06S
NEVADA         SUNNY     82  72  69 S10G16    29.99R
JOPLIN         SUNNY     83  70  64 SW17G23   30.00S
WEST PLAINS    SUNNY     80  72  76 SW6       30.08R

$$

IAZ060-094-KSZ022-034>040-054-083-096-NEZ052-066-093-221500-
...KANSAS...SOUTHEAST NEBRASKA AND IOWA...

CITY           SKY/WX    TMP DP  RH WIND       PRES   REMARKS
TOPEKA         MOSUNNY   85  71  63 CALM      29.95R HX  90
MANHATTAN      PTSUNNY   79  71  76 N6        29.91R
EMPORIA        SUNNY     81  69  67 S15       29.92S
CHANUTE        SUNNY     83  68  60 S17       29.96S
WICHITA        MOSUNNY   82  65  56 S14       29.93R
OMAHA          PTSUNNY   77  71  82 SE7       29.91R
LINCOLN        SUNNY     79  73  82 CALM      29.92R
FALLS CITY     CLOUDY    79  71  76 S8        29.93R
LAMONI         MOSUNNY   80  74  81 S10       29.93S
DES MOINES     PTSUNNY   77  70  79 E6        29.92S

$$




USA.gov is the U.S. government's official web portal to all federal, state and local government web resources and services.